Find Skykraft 4A

NORAD ID: 64897 Int'l Des: 2025-154 Owner: SKYKR Country: AU operational
LEOCIRCULARRETROGRADESSO

实时位置

正在加载3D地球...

关于 Skykraft 4A

正在加载描述...

即将过境

Passes for default location (London). Set your location on the main map for personalized predictions.

高度历史

Loading altitude history...

两行轨道根数

1 64897U 25154J 26106.91058177 .00004077 00000-0 36935-3 0 9991
2 64897 97.6738 172.5441 0006677 109.5825 250.6118 14.95896713 38227
Epoch: Apr 16, 2026 • Age: 13 hours

当前状态

高度 588.3 km
速度 7.57 km/s
星下点 73.45°N, 135.21°E
发射日期 Jul 23, 2025
运行时间 0.7 years
类型 other

技术详情

分类 Payload
质量 50.00 kg
干质量 50.00 kg
总质量 50.00 kg
长度 0.60 m
直径 0.10 m
跨度 0.60 m
形状 Box
制造商 SKYKR
平台类型 Skykraft
阶段状态 In Orbit
所有者/国家 SKYKR/AU

Most Searched